Regional Weather Roundup
Issued by NWS Grand Forks, ND

Home | Current Version | Previous Version | Text Only | Print | Product List | Glossary Off
Versions: 1 2 3 4 5 6 7 8 9 10 11 12 13 14 15 16 17 18 19 20 21 22 23 24 25 26 27 28 29 30 31 32 33 34 35 36 37 38 39 40 41 42 43 44 45 46 47 48 49 50

000
ASUS43 KFGF 061410
RWRFGF
PRAIRIE TO PINES  WEATHER ROUNDUP
NATIONAL WEATHER SERVICE EASTERN NORTH DAKOTA/GRAND FORKS ND
900 AM CDT MON JUL 06 2015

 **SATELLITE DATA USED TO AUGMENT SKY COVER AT AUTOMATED STATIONS**
 *****  WEATHER ACROSS EASTERN NORTH DAKOTA  *****

CITY           SKY/WX    TMP DP  RH WIND       PRES   REMARKS
GRAND FORKS    CLOUDY    56  49  77 N13       30.08R
GRAND FRKS AFB PTSUNNY   56  48  75 N9        30.09R
GRAND FRKS NWS   N/A     55 N/A N/A N9          N/A
DEVILS LAKE    MOSUNNY   57  48  72 N8        30.11R
FARGO          MOSUNNY   62  51  67 N14G23    30.02R
WAHPETON ARPT  CLOUDY    61  55  82 N12G20    29.99R
$$

 ***** WEATHER ACROSS CENTRAL AND WESTERN NORTH DAKOTA  *****

CITY           SKY/WX    TMP DP  RH WIND       PRES   REMARKS
BISMARCK       PTSUNNY   62  55  77 NW7       30.13R HAZE
MINOT          CLOUDY    57  50  77 NW3       30.15R SMOKE
JAMESTOWN      CLOUDY    59  53  80 NE8       30.09R HAZE
MINOT AFB      PTSUNNY   58  58 100 NW3       30.15R
GARRISON         N/A     60  52  74 VRB5      30.15R
WILLISTON      PTSUNNY   58  52  80 NE10      30.19R HAZE
DICKINSON      CLOUDY    60  52  74 NW7       30.17R
HETTINGER      PTSUNNY   62  52  69 N8        30.19R
$$

 *****  OTHER AIRPORT OBSERVATIONS IN OUR AREA  *****

CITY           SKY/WX    TMP DP  RH WIND       PRES   REMARKS
WALHALLA       FAIR      55  50  82 MISG      30.12R
GRAFTON AIRPOR FAIR      55  50  82 NW7       30.11R
VALLEY CITY AR FAIR      57  46  67 N12       30.09R
CANDO          CLOUDY    54  50  87 N10       30.13R
CAVALIER APRT  CLOUDY    55  46  71 NW10G17   30.11R
GWINNER        FAIR      63  55  77 N14G23    30.03S
SHEYENNE NWR     N/A     62  55  76 N13       29.95S
ROLLA          CLOUDY    52  50  93 N9        30.15S
 ***** THE ABOVE OBSERVATIONS ARE NON NWS ARE NOT QUALITY
       CONTROLLED AND MAY MIS-REPORT RAIN FOR SNOW...
$$

  *****  WEATHER ACROSS NORTHERN MINNESOTA  *****

CITY           SKY/WX    TMP DP  RH WIND       PRES   REMARKS
FLAG ISLAND    PTSUNNY   54  46  76 NW18      30.02S
WARROAD        MOSUNNY   54  45  71 NW13      30.05S
ROSEAU         PTSUNNY   55  46  71 N14       30.06R
HALLOCK        PTSUNNY   54  48  82 N10       30.09R
THF RVR FALLS  SUNNY     55  46  71 N17       30.06R
BAUDETTE       MOSUNNY   56  46  69 NW16G24   30.00R
WASKISH        MOSUNNY   57  48  72 NW14      30.00S
CROOKSTON      PTSUNNY   57  52  82 N15       30.06R
STEPHEN NDAWN    N/A     55  50  82 VRB10       N/A
GREENBUSH NDAW   N/A     55  48  76 VRB8        N/A
$$
  *****  WEATHER ACROSS CENTRAL AND WEST MINNESOTA  *****

CITY           SKY/WX    TMP DP  RH WIND       PRES   REMARKS
FOSSTON        MOSUNNY   57  50  77 N12G20    30.04R
BEMIDJI        PTSUNNY   57  52  82 N14       30.00R
PARK RAPIDS    CLOUDY    63  57  81 N16       29.96S HAZE
ELBOW LAKE     FAIR      64  62  91 N14       29.95R FOG
WADENA         CLOUDY    63  61  94 N14       29.94R FOG
DETROIT LAKES  MOSUNNY   61  52  72 N9G18     30.00S HAZE
MOORHEAD       MOSUNNY   61  52  72 N17G25    30.02S
FERGUS FALLS     N/A     63  59  88 N13       29.97R FOG
MORRIS MN      LGT RAIN  66  64  94 N15G21    29.93R
STAPLES        LGT RAIN  63  61  94 N10       29.92S
$$
  *****  WEATHER ELSEWHERE ACROSS MINNESOTA  *****

CITY           SKY/WX    TMP DP  RH WIND       PRES   REMARKS
DULUTH         HVY RAIN  61  58  90 NE8       29.88S VSB 3/4
INTRNTL FALLS  CLOUDY    58  51  78 N12       29.96S
ELY              N/A     59  57  94 N3        29.91S FOG
CLOQUET        HVY RAIN  61  59  94 N7        29.88S
WHEATON          N/A     61  57  88 N14       29.99R FOG
BRAINERD       LGT RAIN  64  61  90 N9        29.90S FOG
HIBBING        CLOUDY    61  58  90 N14       29.90F FOG
ALEXANDRIA     CLOUDY    65  61  87 N16       29.94R FOG
SAINT CLOUD    CLOUDY    64  62  93 N9        29.84S FOG
MINNEAPOLIS    CLOUDY    71  69  93 SE6       29.77F
$$

  *****  WEATHER ACROSS SOUTH DAKOTA  *****

CITY           SKY/WX    TMP DP  RH WIND       PRES   REMARKS
SIOUX FALLS    CLOUDY    69  68  96 N13       29.90R
BROOKINGS      CLOUDY    64  61  88 N14       29.97R
WATERTOWN      CLOUDY    63  59  87 N14G22    29.97R FOG
HURON          CLOUDY    64  59  83 N12       30.01R HAZE
SISSETON         N/A     62  59  90 N17       29.98R
ABERDEEN       CLOUDY    66  60  81 N15       30.02R HAZE
MITCHELL       CLOUDY    64  60  87 N10       29.98S FOG
PIERRE         CLOUDY    66  62  87 N13       30.06R FOG
MOBRIDGE       MOSUNNY   65  61  87 N10       30.08R FOG
RAPID CITY     CLOUDY    59  54  83 N16       30.21R
$$

  *****  SOME WEATHER IN NEARBY STATES *****

CITY           SKY/WX    TMP DP  RH WIND       PRES   REMARKS
GLASGOW MT     MOSUNNY   58  51  78 NW6       30.22R
GREAT FALLS MT SUNNY     52  49  89 SE6       30.25F
CHEYENNE WY    LGT RAIN  55  54  96 NE12      30.27R FOG
SCOTTSBLUFF NE CLOUDY    60  55  83 NE10      30.21R HAZE
OMAHA NE       LGT RAIN  74  71  91 N5        29.87R
DES MOINES IA  CLOUDY    74  70  87 S6        29.88R
DAVENPORT IA   CLOUDY    75  70  84 S12       29.92S
CHICAGO IL     MOSUNNY   76  67  73 S10       29.98S HAZE
EAU CLAIRE WI  CLOUDY    70  67  90 SE5       29.80F FOG
LA CROSSE WI   CLOUDY    74  70  87 S8        29.84F FOG
$$

  *****  SOME NATIONAL WEATHER *****

CITY           SKY/WX    TMP DP  RH WIND       PRES   REMARKS
LA GUARDIA NY  PTSUNNY   79  66  64 VRB7      30.15S
RALEIGH NC     PTSUNNY   77  71  82 SW13      30.14R
ATLANTA GA     CLOUDY    75  70  83 W3        30.19R HAZE
NEW ORLEANS LA CLOUDY    81  73  76 CALM      30.18R
OKLAHOMA CITY  MOSUNNY   80  73  79 S17       29.96R
ALBUQUERQUE NM PTSUNNY   69  59  70 W3        30.18R
SALT LAKE CITY MOSUNNY   74  56  53 SE6       30.10R
LOS ANGELES CA CLOUDY    64  60  87 NW6       30.04R
BOISE ID       MOSUNNY   71  53  52 SE7       30.04R
SEATTLE WA     MOSUNNY   61  54  77 SW7       30.00R
$$

*** WEATHER ACROSS MANITOBA...SASKATCHEWAN AND ONTARIO ***
                ***ONTARIO***

CITY           SKY/WX    TMP DP  RH WIND       PRES   REMARKS
GERALDTON      FOG       61  57  88 W7        29.84R VSB 1
THUNDER BAY    LGT RAIN  61  59  94 SW6       29.87S FOG
SIOUX LOOKOUT  CLOUDY    50  45  81 NW16      29.96R
TORONTO        MOSUNNY   73  61  64 SE6       30.09S
BIG TROUT LK   LGT RAIN  46  43  87 NW21G32   29.75
PICKLE LAKE    PTSUNNY   48  41  76 NW13G21   29.90R
DRYDEN         MOSUNNY   52  45  76 N8G20     29.98R
KENORA         CLOUDY    50  43  76 N9        30.02R
$$
                *** MANITOBA***

CITY           SKY/WX    TMP DP  RH WIND       PRES   REMARKS
BRANDON        PTSUNNY   57  50  77 N8        30.15R
DAUPHIN        MOSUNNY   54  46  76 N10       30.17R
ISLAND LAKE    PTSUNNY   50  45  81 W14G22    29.98R
PILOT MOUND      N/A     52  48  87 N6          N/A
THE PAS        MOSUNNY   57  45  62 W8        30.14S
THOMPSON       MOSUNNY   54  41  62 W9        30.06R
WINNIPEG       MOSUNNY   55  46  71 N13       30.11R
LYNN LAKE      SUNNY     61  45  55 W12       30.03S
CHURCHILL      MOSUNNY   46  41  81 N16       29.89S
GILLAM         PTSUNNY   50  41  71 NW18G25   29.93R
$$
                ***SASKATCHEWAN***

CITY           SKY/WX    TMP DP  RH WIND       PRES   REMARKS
ESTEVAN        CLOUDY    57  50  77 NE8       30.19S SMOKE
KINDERSLEY     PTSUNNY   54  48  82 NE5       30.22S
LLOYDMINSTER   PTSUNNY   50  45  81 SW6       30.19S
PRINCE ALBERT    N/A     48  46  93 W3        30.19S FOG
REGINA         MOSUNNY   57  48  72 N3        30.22S
YORKTON        SUNNY     54  45  71 CALM      30.20R
N. BATTLEFORD  CLOUDY    48  45  87 S2        30.23S
LA RONGE       NOT AVBL
SASKATOON      PTSUNNY   50  48  93 SW2       30.23R
SWIFT CURRENT  MOSUNNY   54  50  87 W5        30.23R
$$
NOTE: THESE ARE AUTOMATED STATIONS WITH LIMITED QUALITY CONTROL
      "FAIR" INDICATES FEW OR NO CLOUDS BELOW 12,000 FEET WITH NO
      SIGNIFICANT WEATHER AND/OR OBSTRUCTIONS TO VISIBILITY.
      SKY/WX - SKY CONDITION AND SIGNIFICANT WEATHER.
      TMP - AIR TEMPERATURE.    DP   - DEWPOINT TEMPERATURE.
      RH  - RELATIVE HUMIDITY.  PRES - PRESSURE.
      HX  - HEAT INDEX.         WCI  - WIND CHILL INDEX.
$



USA.gov is the U.S. government's official web portal to all federal, state and local government web resources and services.